EHI
0 0 0 0 0 0 0 0 0 0 0 0 0 0 0 0 0 0 0 0 1 4 11 17 22 21 16 12 10 9 8 7 7 6 5 5 6 6 3 1 0 0 0 0 0 0 0 0 0
0 0 0 0 0 0 0 0 0 0 0 0 0 0 0 0 0 0 0 0 2 6 11 17 21 21 17 13 10 8 7 6 5 5 4 4 4 4 3 2 2 1 0 0 0 0 0 0 0
0 0 0 0 0 0 0 0 0 0 0 0 0 0 0 1 1 1 0 2 5 8 10 15 18 18 17 14 11 8 6 4 4 4 3 2 1 1 2 3 3 2 1 1 1 0 0 0 0
0 0 0 0 0 0 0 0 0 0 0 0 0 0 0 1 2 3 2 4 8 9 9 11 14 14 14 14 12 9 6 4 3 4 4 2 0 0 0 2 3 3 2 2 1 0 0 0 0
0 0 0 0 0 0 0 0 0 0 0 0 0 0 0 0 2 4 4 5 7 8 7 8 11 12 11 12 12 10 7 4 3 4 5 3 1 0 0 1 3 2 1 1 1 0 0 0 0
0 0 0 0 0 0 0 0 0 0 0 0 0 0 0 0 1 3 4 4 4 6 7 7 10 11 10 11 11 11 8 5 4 4 5 4 3 1 1 2 3 1 0 0 0 0 0 0 0
0 0 0 0 0 0 0 0 0 0 0 0 0 0 0 0 0 1 1 1 2 4 6 7 8 10 10 10 10 10 8 6 4 3 4 3 3 3 3 2 1 0 0 0 0 0 0 0 0
0 0 0 0 0 0 0 0 0 0 0 0 0 0 0 0 0 0 0 0 1 2 4 5 8 9 9 9 9 8 7 6 4 3 2 1 1 2 2 1 0 0 0 0 0 0 0 0 0
0 0 0 0 0 0 0 0 0 0 0 0 0 0 0 0 0 0 0 0 0 0 1 4 6 7 7 6 6 6 5 4 3 2 1 0 0 1 1 0 0 0 0 0 0 0 0 0 0
0 0 0 0 0 0 0 0 0 0 0 0 0 0 0 0 0 0 0 0 0 0 0 2 4 4 3 3 4 5 5 3 2 1 0 0 0 0 0 0 0 0 0 0 0 0 0 0 0
0 0 0 0 0 0 0 0 0 0 0 0 0 0 0 0 0 0 0 0 0 0 0 0 1 1 1 1 3 5 5 2 1 0 0 0 1 0 0 0 0 0 0 0 0 0 0 0 0
0 0 0 0 0 0 0 0 0 0 0 0 0 0 0 0 0 0 0 0 0 0 0 0 0 0 0 1 2 4 4 1 0 0 0 0 0 0 0 0 0 0 0 0 1 0 0 0 0
0 0 0 0 0 0 0 0 0 0 0 0 0 0 0 0 0 0 0 0 0 0 0 0 0 0 0 0 1 2 2 1 0 0 0 0 0 0 0 0 1 0 0 0 0 0 0 0 0
0 0 0 0 0 0 0 0 0 0 0 0 0 0 0 0 0 0 0 0 0 0 0 0 0 0 0 0 0 1 1 0 0 0 0 0 0 0 0 0 0 0 0 0 0 0 0 0 0
0 0 0 0 0 0 0 0 0 0 0 0 0 0 0 0 0 0 0 0 0 0 0 0 0 0 0 0 0 0 0 0 0 0 0 0 0 0 0 0 0 0 0 0 0 0 0 0 0
0 0 0 0 0 0 0 0 0 0 0 0 0 0 0 0 0 0 0 0 0 0 0 0 0 0 0 0 0 0 0 0 0 0 0 0 0 0 0 0 0 0 0 0 0 0 0 0 0
0 0 0 0 0 0 0 0 0 0 0 0 0 0 0 0 0 0 0 0 0 0 0 0 0 0 0 0 0 0 0 0 0 0 0 0 0 0 0 0 0 0 0 0 0 0 0 0 0
0 0 0 0 0 0 0 0 0 0 0 0 0 0 0 0 0 0 0 0 0 0 0 0 0 0 0 0 0 0 0 0 0 0 0 0 0 0 0 0 0 0 0 0 0 0 0 0 0
0 0 0 0 0 0 0 0 0 0 0 0 0 0 0 0 0 0 0 0 0 0 0 0 0 0 0 0 0 0 0 0 0 0 0 0 0 0 0 0 0 0 0 0 0 0 0 0 0
0 0 0 0 0 0 0 0 0 0 0 0 0 0 0 0 0 0 0 0 0 0 0 0 0 0 0 0 0 0 0 0 0 0 0 0 0 0 0 0 0 0 0 0 0 0 0 0 0
0 0 0 0 0 0 0 0 0 0 0 0 0 0 0 0 0 0 0 0 0 0 0 0 0 0 0 0 0 0 0 0 0 0 0 0 0 0 0 0 0 0 0 0 0 0 0 0 0
0 0 0 0 0 0 0 0 0 0 0 0 0 0 0 0 0 0 0 0 0 0 0 0 0 0 0 0 0 0 0 0 0 0 0 0 0 0 0 0 0 0 0 0 0 0 0 0 0
0 0 0 0 0 0 0 0 0 0 0 0 0 0 0 0 0 0 0 0 0 0 0 0 0 0 0 0 0 0 0 0 0 0 0 0 0 0 0 0 0 0 0 0 0 0 0 0 0
0 0 0 0 0 0 0 0 0 0 0 0 0 0 0 0 0 0 0 0 0 0 0 0 0 0 0 0 0 0 0 0 0 0 0 0 0 0 0 0 0 0 0 0 0 0 0 0 0
0 0 0 0 0 0 0 0 0 0 0 0 0 0 0 0 0 0 0 0 0 0 0 0 0 0 0 0 0 0 0 0 0 0 0 0 0 0 0 0 0 0 0 0 0 0 0 0 0
0 0 0 0 0 0 0 0 0 0 0 0 0 0 0 0 0 0 0 0 0 0 0 0 0 0 0 0 0 0 0 0 0 0 0 0 0 0 0 0 0 0 0 0 0 0 0 0 0
0 0 0 0 0 0 0 0 0 0 0 0 0 0 0 0 0 0 0 0 0 0 0 0 0 0 0 0 0 0 0 0 0 0 0 0 0 0 0 0 0 0 0 0 0 0 0 0 0
0 0 0 0 0 0 0 0 0 0 0 0 0 0 0 0 0 0 0 0 0 0 0 0 0 0 0 0 0 0 0 0 0 0 0 0 0 0 0 0 0 0 0 0 0 0 0 0 0
0 0 0 0 0 0 0 0 0 0 0 0 0 0 0 0 0 0 0 0 0 0 0 0 0 0 0 0 0 0 0 0 0 0 0 0 0 0 0 0 0 0 0 0 0 0 0 0 0
0 0 0 0 0 0 0 0 0 0 0 0 0 0 0 0 0 0 0 0 0 0 0 0 0 0 0 0 0 0 0 0 0 0 0 0 0 0 0 0 0 0 0 0 0 0 0 0 0
Wind_Speed
8 5 2 4 6 4 2 5 3 1 0 1 1 3 4 3 3 4 2 4 7 7 6 8 9 9 9 8 8 8 8 8 8 8 9 9 9 9 8 8 8 8 8 8 9 9 8 8 9
3 3 5 5 5 1 5 4 3 3 3 1 2 3 3 2 3 5 2 4 8 7 6 6 9 9 9 9 8 8 8 9 8 8 8 8 9 9 8 8 7 7 8 8 9 8 8 8 8
3 2 4 4 4 6 5 3 4 3 1 1 2 3 3 3 2 3 3 6 7 6 5 6 9 9 9 9 8 8 8 9 8 8 8 8 8 8 8 8 7 8 8 8 8 8 8 7 7
3 5 5 3 4 5 5 3 3 2 1 1 3 3 2 1 3 3 5 7 7 5 5 6 8 9 9 9 8 8 8 8 8 8 8 7 7 7 7 8 8 8 8 8 8 8 8 7 6
4 4 3 0 4 4 3 3 3 2 1 0 2 2 1 2 3 6 6 7 8 5 4 5 8 8 8 8 8 7 7 7 7 7 7 7 7 7 7 7 8 8 8 7 7 7 7 6 6
4 4 3 4 5 4 3 3 2 1 1 0 2 2 1 0 3 5 5 5 6 6 5 5 7 7 7 8 7 7 6 6 7 7 7 7 7 6 7 7 8 8 7 7 7 7 6 6 6
4 4 4 4 4 4 3 2 3 3 2 3 3 3 1 1 2 4 5 5 4 5 5 3 4 4 5 6 7 6 5 5 6 6 6 6 6 6 6 7 7 8 7 7 6 6 5 5 5
4 4 2 3 4 4 2 1 1 3 3 1 3 5 4 4 3 4 5 4 3 4 4 4 3 3 3 3 6 6 5 5 5 5 5 5 5 5 5 5 6 7 7 6 5 5 5 4 4
4 3 4 5 4 3 1 0 1 1 2 1 1 3 4 6 5 5 4 3 1 3 3 3 3 3 2 2 5 5 4 4 4 4 5 4 2 2 3 4 5 6 6 6 5 4 4 4 4
4 4 7 4 3 2 2 2 2 0 1 0 1 1 3 6 6 6 5 4 3 3 3 3 3 3 3 2 3 2 2 2 2 2 2 2 1 1 2 4 5 5 4 4 3 3 3 3 2
4 6 4 3 3 3 2 3 2 3 4 6 5 4 5 5 5 5 5 5 4 3 4 4 4 3 3 2 2 2 1 1 1 2 2 2 1 1 1 1 2 2 2 1 2 2 1 1 2
4 5 5 4 3 3 3 3 3 5 7 5 6 7 6 6 6 6 6 5 3 3 4 4 4 4 3 2 2 2 2 1 1 2 2 2 1 1 1 1 1 1 1 1 1 1 2 2 3
5 5 5 5 5 4 4 5 4 7 6 3 4 5 6 7 6 5 5 4 3 3 3 3 4 4 3 3 3 3 2 2 2 2 2 2 2 2 2 1 1 2 1 2 1 1 2 3 3
5 4 4 5 5 4 5 6 4 9 4 4 5 6 7 7 6 5 4 4 4 4 3 2 4 4 3 3 3 3 3 2 2 2 2 3 2 2 2 2 2 2 2 2 2 2 2 2 2
1 3 5 5 5 4 3 7 8 9 3 5 6 6 7 6 6 6 6 5 6 5 4 3 4 4 4 4 3 3 3 3 2 2 2 3 2 2 2 2 2 2 2 2 2 2 2 3 3
0 2 5 6 5 4 5 10 8 5 5 6 6 5 6 6 6 6 6 5 5 4 4 4 3 4 4 3 3 2 2 3 2 2 2 2 3 3 2 2 2 2 2 2 3 3 3 2 2
1 4 6 6 4 4 6 9 6 4 6 6 6 5 6 5 5 5 5 5 5 5 5 4 3 4 4 3 2 2 2 2 2 2 2 2 2 3 2 2 2 2 2 2 3 3 3 3 2
6 6 6 7 4 5 7 10 8 4 6 7 6 5 5 5 6 5 5 5 5 5 5 4 4 4 4 3 2 2 2 1 1 2 2 2 2 3 2 2 2 2 2 2 2 3 3 3 3
4 5 6 6 4 4 8 11 10 6 6 6 6 5 6 6 5 4 4 4 5 4 5 5 4 3 3 2 2 2 2 2 2 2 3 2 2 2 2 2 3 3 2 3 4 3 4 2 3
6 7 7 6 3 4 6 10 9 7 8 8 8 7 7 5 3 3 4 4 5 5 5 5 4 4 3 3 2 2 2 2 2 1 2 2 2 2 3 3 3 3 3 3 3 4 3 2 2
9 10 9 6 4 3 3 7 6 5 4 5 6 6 6 6 6 4 4 4 5 5 5 5 4 4 3 3 3 2 1 1 0 1 1 2 2 2 2 2 3 3 3 4 4 4 5 3 1
10 7 7 5 3 4 2 5 6 5 4 5 6 5 5 5 4 4 5 5 5 5 4 4 4 4 4 4 4 5 3 2 2 2 1 1 2 2 2 2 3 3 3 4 4 3 3 5 3
7 3 4 3 3 4 3 4 8 3 5 7 6 6 5 5 5 6 6 6 5 4 4 4 4 3 3 4 5 4 3 2 1 1 1 1 1 1 2 2 2 3 3 3 3 3 3 3 3
3 1 1 2 1 6 7 7 8 6 9 6 6 6 5 5 5 5 4 4 3 3 3 4 5 4 3 3 4 4 4 3 3 2 2 1 0 0 1 2 2 3 2 3 3 4 4 3 3
3 4 1 1 2 8 4 6 10 6 6 7 7 6 5 4 4 4 4 4 4 4 4 4 5 4 4 4 4 4 4 4 5 4 3 2 1 1 2 2 2 2 3 3 3 3 3 3 4
6 7 7 6 6 4 3 8 7 4 3 4 5 4 4 3 3 4 5 5 5 5 4 4 5 4 5 5 4 3 4 3 2 3 3 3 2 2 2 2 2 2 3 3 3 2 2 2 3
5 6 5 3 2 3 5 5 5 1 1 3 3 3 2 2 3 3 3 4 4 5 4 5 5 4 4 5 4 3 3 3 2 2 2 2 2 2 2 2 2 2 2 2 3 2 2 2 2
4 5 4 4 5 5 5 5 5 4 4 4 4 3 2 1 2 3 3 3 3 3 3 3 3 4 4 4 4 3 3 3 3 3 2 2 2 2 3 2 2 2 1 1 2 2 2 2 2
2 3 3 4 4 5 4 6 5 6 6 5 4 3 3 2 2 2 2 2 2 2 2 3 3 2 3 3 3 3 3 3 3 3 3 3 3 3 3 3 3 2 2 2 2 2 2 3 2
4 5 5 4 5 4 3 6 2 2 3 4 3 2 1 1 2 2 2 2 2 2 2 3 2 2 2 3 3 3 3 3 3 3 3 3 3 3 3 3 3 2 2 2 2 2 2 2 2
Wind_Direction
332 338 54 57 58 56 233 243 225 246 256 239 116 105 121 123 145 160 167 132 127 136 142 137 129 123 120 117 115 118 115 113 114 116 116 113 110 110 110 107 109 113 113 112 109 106 104 102 98
334 358 53 62 95 156 253 239 219 221 212 196 61 81 78 75 80 112 125 136 128 131 132 131 129 127 123 121 119 118 119 116 116 116 116 116 114 109 107 106 106 113 113 111 110 106 102 100 95
339 54 80 81 138 189 220 222 207 210 227 153 72 65 102 119 115 141 164 140 123 118 117 127 126 130 127 125 123 121 120 119 117 118 116 118 117 115 113 108 103 108 111 110 109 107 105 102 97
55 48 59 88 215 227 216 224 201 163 343 36 103 68 67 58 155 156 145 130 122 118 119 127 126 128 130 127 124 123 123 122 121 122 123 122 122 122 120 111 104 106 107 109 109 111 109 105 100
65 79 78 239 242 249 240 227 201 180 188 357 91 105 72 351 103 117 127 125 127 126 126 129 129 129 132 133 130 126 125 129 128 128 130 129 126 127 125 117 112 109 110 113 114 115 112 107 100
63 78 121 224 241 252 257 230 187 163 209 280 109 120 186 84 112 124 119 118 129 133 127 129 131 138 134 136 134 131 129 132 134 133 132 132 130 129 131 127 123 116 114 115 118 118 114 106 99
112 119 185 211 235 253 253 229 169 175 203 217 149 130 185 227 163 132 117 107 118 132 129 128 132 141 135 137 135 132 130 129 133 136 133 130 130 129 131 131 130 124 119 115 116 118 113 105 97
131 124 201 224 222 242 257 244 192 169 214 223 137 154 196 207 172 121 104 99 106 131 134 140 133 136 135 148 137 128 125 122 125 127 129 126 126 127 129 132 133 129 125 118 117 115 107 96 91
104 105 214 215 205 235 257 258 307 204 141 99 163 182 191 157 139 112 97 89 111 150 143 146 143 139 138 157 145 130 125 123 122 123 125 119 116 126 131 136 134 133 128 121 120 118 102 88 86
120 184 222 212 190 211 260 245 235 149 193 230 349 17 129 142 143 144 148 164 182 190 179 164 157 154 152 161 140 138 129 124 119 122 120 126 137 151 142 140 142 139 128 123 117 109 90 83 80
172 201 218 230 213 211 244 263 242 179 231 216 194 178 161 160 160 164 174 179 192 204 198 173 167 162 156 158 154 145 137 135 134 136 128 132 133 135 122 128 139 141 131 119 106 91 81 93 94
201 230 214 222 212 213 225 236 252 221 228 216 193 174 170 181 189 187 186 184 184 203 210 181 176 163 161 168 157 152 149 152 163 166 153 143 145 155 159 156 165 160 153 135 114 114 111 106 104
223 247 240 241 234 230 242 243 246 255 241 221 187 176 178 190 198 196 185 181 175 190 192 194 177 169 164 164 164 151 159 165 171 168 164 159 159 173 176 176 169 174 161 150 141 127 125 116 111
225 239 261 255 242 229 232 259 241 257 229 188 184 195 199 198 198 189 185 182 186 193 195 193 183 172 163 160 160 168 163 162 160 174 174 167 167 172 179 176 171 181 172 159 154 147 135 126 122
234 272 288 256 229 222 197 267 238 245 197 192 198 200 204 206 196 195 194 190 188 185 181 197 190 167 162 158 168 164 169 161 163 178 174 168 169 166 177 174 175 186 174 151 139 122 115 113 110
194 239 260 258 206 199 171 250 254 227 186 208 212 211 209 214 204 204 194 188 185 175 174 198 185 161 155 158 169 162 167 162 167 170 172 171 168 161 162 176 184 179 165 150 145 138 115 111 115
223 231 238 262 215 185 191 242 257 229 195 211 214 215 214 216 216 213 202 191 184 176 169 180 167 158 158 159 162 161 160 162 173 167 180 183 176 167 165 179 180 167 159 157 155 140 131 128 121
214 220 234 235 226 188 217 247 260 251 210 216 215 213 214 212 219 207 196 183 170 161 157 162 159 159 151 147 138 147 143 165 179 176 189 192 185 172 162 177 169 160 152 155 147 142 132 134 132
212 221 242 247 233 210 232 251 256 247 226 226 224 215 213 216 215 190 180 165 151 143 146 159 163 162 150 150 154 163 177 188 203 195 189 184 184 174 165 177 166 162 160 164 155 144 137 124 126
239 247 259 278 247 226 250 260 256 239 225 217 214 212 207 207 204 188 171 157 159 157 158 163 170 170 167 169 168 167 170 185 202 189 172 173 175 181 171 169 170 166 157 153 160 147 138 136 139
235 231 237 248 294 281 284 287 259 250 226 219 214 209 201 197 198 189 175 169 163 165 171 173 179 177 168 158 139 113 91 70 77 173 188 191 176 174 167 162 167 164 166 169 174 167 150 161 193
241 228 224 227 232 263 201 270 265 235 237 223 217 207 202 197 186 180 178 179 179 182 177 172 172 175 168 162 158 155 166 180 206 197 192 187 171 167 161 155 163 164 166 169 171 167 157 160 175
230 218 214 223 209 260 232 232 271 226 235 230 219 208 205 199 188 183 186 187 182 179 177 172 163 173 169 169 168 164 172 174 155 150 163 172 165 155 160 162 164 166 171 168 164 164 164 166 175
199 82 33 38 105 251 220 201 265 220 217 216 213 207 205 199 191 188 186 172 167 167 166 165 159 170 174 171 171 168 172 161 152 160 176 195 162 157 164 167 163 167 165 162 168 169 168 171 167
138 121 64 295 233 244 200 201 247 238 216 200 201 202 203 193 187 180 169 167 169 170 173 172 167 174 178 173 177 178 179 175 174 177 178 185 174 173 203 175 166 173 171 168 161 161 164 168 169
195 167 178 205 216 255 215 223 248 256 216 182 176 176 171 170 173 173 177 175 174 173 173 175 178 181 179 178 180 176 172 180 184 178 168 174 180 185 177 164 154 157 164 162 157 159 163 162 165
169 199 190 161 206 235 247 265 290 311 107 141 146 143 155 167 165 168 170 170 174 176 180 180 178 175 175 174 169 169 168 172 169 166 161 160 162 160 144 143 133 131 143 155 155 159 171 164 168
179 165 140 172 195 231 252 239 228 210 199 183 171 170 173 167 152 153 158 162 168 171 167 161 165 170 166 166 173 171 173 173 166 165 163 151 151 147 141 135 133 138 148 146 155 166 174 164 177
177 184 180 182 194 190 230 254 217 188 184 181 185 173 172 171 168 165 159 153 141 129 137 145 148 145 151 163 167 160 164 164 164 168 168 163 153 147 148 150 149 154 158 155 152 172 171 168 181
202 200 175 193 227 206 209 259 297 158 156 147 147 153 160 170 155 148 140 122 120 129 143 150 153 157 165 161 154 159 158 161 161 164 165 157 153 150 148 144 144 147 144 141 155 169 175 171 185